Lewiston, ID

4:11 PM PDT on March 26, 2017 (GMT -0700)
Lewiston-Nez Perce County

Weather History for KLWS - February, 2013

Change the Weather History Date:

Saturday, February 16, 2013

  Actual Average Record
Temperature  
Mean Temperature 48 °F 39 °F  
Max Temperature 61 °F 47 °F 65 °F (1977)
Min Temperature 34 °F 31 °F -10 °F (1936)
Degree Days  
Heating Degree Days 17 26  
Month to date heating degree days 370 435  
Since 1 July heating degree days 3142 3554  
Cooling Degree Days 0 0  
Month to date cooling degree days 0 0  
Year to date cooling degree days 0 0  
Moisture  
Dew Point 33 °F    
Average Humidity 65    
Maximum Humidity 89    
Minimum Humidity 40    
Precipitation  
Precipitation T in 0.03 in 0.58 in (1959)
Month to date precipitation 0.46 0.44  
Year to date precipitation 1.36 1.52  
Snow  
Snow 0.00 in 0.10 in 4.00 in (1944)
Month to date snowfall T 1.3  
Since 1 July snowfall 2.6 9.0  
Snow Depth 0.00 in    
Sea Level Pressure  
Sea Level Pressure 30.09 in    
Wind  
Wind Speed 7 mph (NW)    
Max Wind Speed 26 mph    
Max Gust Speed 33 mph    
Visibility 10 miles    
Events      
T = Trace of Precipitation, MM = Missing Value Source: NWS Daily Summary

Daily Weather History Graph

Daily Weather History Graph

Search for Another Location

Airport or City:

Trip Planner

Search our weather history database for the weather conditions in past years. The results will help you decide how hot, cold, wet, or windy it might be!

Date:

Astronomy

Feb. 16, 2013 Rise Set
Actual Time 6:49 AM PST 5:15 PM PST
Civil Twilight 6:18 AM PST 5:46 PM PST
Nautical Twilight 5:43 AM PST 6:21 PM PST
Astronomical Twilight 5:08 AM PST 6:56 PM PST
Moon 9:39 AM PST (2/16) No Moon Set
Length of Visible Light 11h 28m
Length of Day
10h 26m
Waxing Crescent, 40% of the Moon is Illuminated
Feb 16
Waxing Crescent
Feb 17
First Quarter
Feb 25
Full
Mar 4
Last Quarter
Mar 11
New

Hourly Weather History & Observations

Time (PST) Temp. Windchill Dew Point Humidity Pressure Visibility Wind Dir Wind Speed Gust Speed Precip Events Conditions
12:56 AM 39.9 °F 35.8 °F 32.0 °F 73% 30.27 in 10.0 mi ENE 5.8 mph - N/A   Clear
1:56 AM 37.0 °F - 32.0 °F 82% 30.25 in 10.0 mi Calm Calm - N/A   Clear
2:56 AM 35.6 °F - 32.0 °F 87% 30.22 in 10.0 mi Calm Calm - N/A   Clear
3:56 AM 39.9 °F - 32.0 °F 73% 30.21 in 10.0 mi Calm Calm - N/A   Clear
4:56 AM 39.9 °F - 32.0 °F 73% 30.19 in 10.0 mi Calm Calm - N/A   Clear
5:56 AM 37.0 °F - 30.9 °F 79% 30.19 in 10.0 mi Calm Calm - N/A   Mostly Cloudy
6:56 AM 37.0 °F 31.6 °F 30.9 °F 79% 30.18 in 10.0 mi ENE 6.9 mph - N/A   Scattered Clouds
7:56 AM 41.0 °F 37.1 °F 32.0 °F 70% 30.17 in 10.0 mi Variable 5.8 mph - N/A   Clear
8:56 AM 44.1 °F 42.5 °F 34.0 °F 68% 30.16 in 10.0 mi NNW 3.5 mph - N/A   Clear
9:56 AM 48.9 °F - 35.1 °F 59% 30.14 in 10.0 mi Variable 3.5 mph - N/A   Clear
10:56 AM 54.0 °F - 36.0 °F 51% 30.10 in 10.0 mi NNE 3.5 mph - N/A   Clear
11:56 AM 57.9 °F - 37.0 °F 46% 30.06 in 10.0 mi NNE 5.8 mph - N/A   Clear
12:56 PM 57.0 °F - 37.0 °F 47% 30.03 in 10.0 mi NNW 5.8 mph - N/A   Clear
1:56 PM 59.0 °F - 36.0 °F 42% 30.00 in 10.0 mi NNW 6.9 mph - N/A   Mostly Cloudy
2:56 PM 55.9 °F - 37.0 °F 49% 29.99 in 10.0 mi NW 10.4 mph - N/A   Overcast
3:56 PM 52.0 °F - 37.9 °F 59% 29.98 in 10.0 mi NW 17.3 mph 25.3 mph 0.00 in   Overcast
4:56 PM 52.0 °F - 34.0 °F 50% 29.99 in 10.0 mi West 9.2 mph - N/A   Overcast
5:56 PM 50.0 °F - 30.0 °F 46% 29.99 in 10.0 mi SSW 6.9 mph - N/A   Overcast
6:56 PM 48.9 °F - 33.1 °F 54% 29.99 in 10.0 mi West 6.9 mph - N/A   Overcast
7:56 PM 48.0 °F - 30.9 °F 52% 29.99 in 10.0 mi WSW 16.1 mph 23.0 mph 0.00 in   Mostly Cloudy
8:56 PM 48.0 °F - 30.0 °F 50% 30.01 in 10.0 mi West 15.0 mph - N/A   Overcast
9:56 PM 44.6 °F 38.8 °F 30.2 °F 57% 29.99 in 10.0 mi West 11.5 mph - N/A   Partly Cloudy
10:56 PM 43.0 °F 37.2 °F 28.0 °F 56% 30.01 in 10.0 mi West 10.4 mph - N/A   Scattered Clouds
11:56 PM 44.1 °F 39.5 °F 28.0 °F 53% 30.02 in 10.0 mi WSW 8.1 mph - N/A   Overcast